PSLV DEB

Satellite information

Favourite Embed

Satellite Type and Status

DEBRISIN ORBIT

Key statistics

Satellite PSLV DEB at a glance.

Uptime

8659

Days in orbit

Revolutions

≈ 14.8

Per day

Orbit

SSO

Sun Synchronous Orbit

Inclination

98.3

Latest

Satellite identification and parameters

Extended collection of information and parameters for PSLV DEB.

Object identification

Identified? True

Debris? True

Object name: PSLV DEB

International designator: 2001-049KB

Object number (NORAD): 27305

Object ID (CCSDS): 27305

Country: INDIA (IND)

Current information (Y/N): Y

RCS size: SMALL

Orbital parameters

Period: 97.39 minutes

Inclination: 98.2584 deg

SMA: 7011.905 km

Apoapsis: 661.434 km

Periapsis: 606.106 km

RAAN: 234.944 deg

Eccentricy: 0.0039453

Argument of periapsis: 160.7129 deg

Mean anomaly: 229.9743 deg

Mean motion: 14.78593284 rev/day

Mean motion (dot): 0.00001216 rev/day2

B* drag term: 0.00017183 1/REarth

Two-line elements (TLE)

Creation date: July 6, 2025, 6:05 p.m.

Reference frame: TEME

Reference center: EARTH

Epoch: July 6, 2025, 1:59 a.m. UTC

TLE line 0: 0 PSLV DEB

TLE line 1: 1 27305U 01049KB 25187.08293690 .00001216 00000-0 17183-3 0 9994

TLE line 2: 2 27305 98.2584 234.9440 0039453 160.7129 229.9743 14.78593284262277

Live tracking on map

Real-time ground track for satellite PSLV DEB.

In-orbit conjunctions

A list of the most updated potential collisions computed for object PSLV DEB.

Target Orbit TCA Probability of collision Miss distance Type
PSLV R/B SSO 2025-05-19 22:11:02 0.0005271586 133.0 (m) ROCKET BODY

Associated space launch

Technology Experiment Satellite (TES) is Indian remote sensing and photo-reconnaissance satellite. The 1108 kg satellite carries a one-meter resolution panchromatic camera is an experimental satellite to demonstrate and validate, in orbit, technologies that could be used in the future satellites of Indian Space Research Organisation (ISRO). It was successfully placed in 572 km Sun-synchronous orbit on 22 October 2001 using the PSLV-C3. The PSLV-C3 also injected two more satellites: PROBA, a Belgian satellite and BIRD, a German satellite.

PSLV DEB was lifted into orbit during the mission ‘PSLV | TES’, on board a PSLV space rocket.

The launch took place on Oct. 22, 2001, 4:53 a.m. from Satish Dhawan Space Centre First Launch Pad.

For more information about the launch, click the button.

Launch to space PSLV | TES
PSLV | TES

Agency: N/A

Status: Launch Successful

Launch date: Oct. 22, 2001, 4:53 a.m. UTC

Rocket: PSLV

Launch pad: Satish Dhawan Space Centre First Launch Pad

Location: Satish Dhawan Space Centre, India

...

Latest news about this satellite

News about space launch
Proba-1’s T-plus 23 years in orbit

Proba-1’s T-plus 23 years in orbit


Newsletter sign-up

Weekly statistics, charts and insights to help you stay on top of the space industry.